Date String (YYYY-MM-DD hh:mm:ss) UTC,Instrument flags,Ambient pressure (hPa),Sample flow (lpm),Bypass flow (lpm),Sample temperature (°C),Ambient temperature (°C),ASC tube jacket temperature (°C),LED temperature (°C),Box temperature (°C),Sample RH (%),Span deviation,Mass concentration (μg/m³),Mass concentration (μg/m³),Mass concentration (μg/m³)
DateTimeUTC,F1_M11,P_M11,Q1_M11,Q2_M11,T1_M11,T2_M11,T3_M11,T4_M11,T5_M11,U1_M11,ZSPAN_M11,X0_M11,X2_M11,X1_M11
2022-09-20 09:00:00,,0826.9,4.99,0.00,30.3,28.9,00.0,39.1,32.1,11.1,0000.0,0002.18,0001.55,0001.34
2022-09-20 09:01:00,,0826.9,5.01,0.00,30.3,29.0,00.0,39.1,32.1,11.1,0000.0,0002.19,0001.55,0001.34
2022-09-20 09:02:00,,0827.0,4.99,0.00,30.3,29.0,00.0,39.1,32.1,11.0,0000.0,0002.25,0001.57,0001.34
2022-09-20 09:03:00,,0827.0,5.01,0.00,30.4,29.0,00.0,39.1,32.1,11.0,0000.0,0002.40,0001.64,0001.35
2022-09-20 09:04:00,,0826.9,4.99,0.00,30.4,29.0,00.0,39.1,32.1,11.1,0000.0,0002.39,0001.64,0001.34
2022-09-20 09:05:00,,0826.9,5.00,0.00,30.4,29.0,00.0,39.1,32.2,11.1,0000.0,0002.39,0001.65,0001.35
2022-09-20 09:06:00,,0826.9,5.01,0.00,30.4,29.0,00.0,39.1,32.2,11.1,0000.0,0002.41,0001.66,0001.37
2022-09-20 09:07:00,,0826.9,5.01,0.00,30.4,29.0,00.0,39.1,32.2,11.1,0000.0,0002.42,0001.68,0001.38
2022-09-20 09:08:00,,0826.9,4.99,0.00,30.4,29.1,00.0,39.2,32.2,11.1,0000.0,0002.36,0001.68,0001.40
2022-09-20 09:09:00,,0826.9,5.01,0.00,30.4,29.1,00.0,39.2,32.2,11.1,0000.0,0002.27,0001.70,0001.42
2022-09-20 09:10:00,,0826.9,4.99,0.00,30.4,29.1,00.0,39.2,32.2,11.1,0000.0,0002.23,0001.71,0001.44
2022-09-20 09:11:00,,0826.9,5.00,0.00,30.4,29.1,00.0,39.2,32.2,11.1,0000.0,0002.13,0001.70,0001.44
2022-09-20 09:12:00,,0826.9,4.99,0.00,30.5,29.1,00.0,39.2,32.2,11.2,0000.0,0002.10,0001.70,0001.45
2022-09-20 09:13:00,,0826.9,5.02,0.00,30.5,29.1,00.0,39.2,32.2,11.2,0000.0,0002.11,0001.70,0001.46
2022-09-20 09:14:00,,0826.9,4.99,0.00,30.5,29.1,00.0,39.2,32.3,11.2,0000.0,0002.03,0001.66,0001.47
2022-09-20 09:15:00,,0826.9,5.01,0.00,30.5,29.1,00.0,39.2,32.3,11.2,0000.0,0002.05,0001.66,0001.48
2022-09-20 09:16:00,,0826.9,4.99,0.00,30.5,29.1,00.0,39.2,32.3,11.2,0000.0,0002.02,0001.65,0001.49
2022-09-20 09:17:00,,0826.9,4.99,0.00,30.5,29.2,00.0,39.2,32.3,11.2,0000.0,0001.98,0001.64,0001.49
2022-09-20 09:18:00,,0827.0,5.01,0.00,30.5,29.2,00.0,39.3,32.3,11.2,0000.0,0001.98,0001.64,0001.50
2022-09-20 09:19:00,,0826.9,5.00,0.00,30.5,29.2,00.0,39.3,32.3,11.2,0000.0,0002.00,0001.64,0001.50
2022-09-20 09:20:00,,0826.9,5.01,0.00,30.5,29.2,00.0,39.3,32.3,11.2,0000.0,0002.01,0001.66,0001.51
2022-09-20 09:21:00,,0826.9,5.00,0.00,30.6,29.2,00.0,39.3,32.4,11.2,0000.0,0002.02,0001.66,0001.51
2022-09-20 09:22:00,,0827.0,5.01,0.00,30.6,29.2,00.0,39.3,32.4,11.2,0000.0,0002.00,0001.66,0001.51
2022-09-20 09:23:00,,0826.9,5.00,0.00,30.6,29.2,00.0,39.3,32.4,11.2,0000.0,0002.05,0001.67,0001.51
2022-09-20 09:24:00,,0826.9,5.00,0.00,30.6,29.2,00.0,39.3,32.4,11.2,0000.0,0002.08,0001.67,0001.51
2022-09-20 09:25:00,,0826.9,5.01,0.00,30.6,29.2,00.0,39.3,32.4,11.2,0000.0,0002.12,0001.69,0001.52
2022-09-20 09:26:00,,0827.0,4.99,0.00,30.6,29.2,00.0,39.4,32.4,11.3,0000.0,0002.15,0001.71,0001.52
2022-09-20 09:27:00,,0827.0,5.00,0.00,30.6,29.2,00.0,39.4,32.4,11.3,0000.0,0002.13,0001.71,0001.53
2022-09-20 09:28:00,,0827.1,5.01,0.00,30.6,29.2,00.0,39.4,32.4,11.2,0000.0,0002.20,0001.73,0001.53
2022-09-20 09:29:00,,0827.0,4.99,0.00,30.6,29.2,00.0,39.4,32.4,11.2,0000.0,0002.24,0001.72,0001.53
2022-09-20 09:30:00,,0827.3,5.00,0.00,30.6,27.8,00.0,39.3,32.4,11.3,0000.0,0002.25,0001.73,0001.54
2022-09-20 09:31:00,,0827.1,5.00,0.00,30.6,26.9,00.0,39.3,32.3,11.3,0000.0,0002.64,0001.72,0001.53
2022-09-20 09:32:00,,0827.0,5.01,0.00,30.5,26.9,00.0,39.2,32.1,11.4,0000.0,0003.19,0001.71,0001.51
2022-09-20 09:33:00,,0827.2,5.01,0.00,30.4,27.1,00.0,39.2,31.9,11.4,0000.0,0003.25,0001.74,0001.51
2022-09-20 09:34:00,,0827.1,5.00,0.00,30.3,27.4,00.0,39.2,31.9,11.4,0000.0,0003.25,0001.76,0001.49
2022-09-20 09:35:00,,0827.1,5.00,0.00,30.3,27.7,00.0,39.1,31.9,11.4,0000.0,0003.25,0001.75,0001.49
2022-09-20 09:36:00,,0827.0,5.00,0.00,30.3,27.9,00.0,39.1,31.9,11.3,0000.0,0003.44,0001.74,0001.47
2022-09-20 09:37:00,,0827.0,4.99,0.00,30.2,28.1,00.0,39.1,31.9,11.3,0000.0,0003.93,0001.74,0001.46
2022-09-20 09:38:00,,0827.2,5.00,0.00,30.2,28.3,00.0,39.1,31.9,11.3,0000.0,0004.39,0001.73,0001.45
2022-09-20 09:39:00,,0827.0,5.00,0.00,30.2,28.4,00.0,39.0,31.9,11.5,0000.0,0004.33,0001.71,0001.43
2022-09-20 09:40:00,,0827.0,4.98,0.00,30.2,28.5,00.0,39.0,31.9,11.6,0000.0,0004.35,0001.72,0001.42
2022-09-20 09:41:00,,0827.0,5.01,0.00,30.2,28.6,00.0,39.0,32.0,11.6,0000.0,0004.34,0001.71,0001.40
2022-09-20 09:42:00,,0827.1,4.99,0.00,30.2,28.6,00.0,39.0,32.0,11.8,0000.0,0003.91,0001.70,0001.40
2022-09-20 09:43:00,,0826.9,5.01,0.00,30.2,28.7,00.0,39.0,32.0,11.6,0000.0,0003.63,0001.71,0001.39
2022-09-20 09:44:00,,0826.9,4.98,0.00,30.2,28.7,00.0,39.0,32.0,11.6,0000.0,0003.60,0001.68,0001.38
2022-09-20 09:45:00,,0827.0,5.01,0.00,30.2,28.7,00.0,39.0,32.0,11.6,0000.0,0003.54,0001.65,0001.39
2022-09-20 09:46:00,,0827.0,4.99,0.00,30.2,28.8,00.0,39.0,32.0,11.7,0000.0,0003.53,0001.64,0001.39
2022-09-20 09:47:00,,0827.0,5.00,0.00,30.2,28.8,00.0,39.0,32.0,11.7,0000.0,0003.44,0001.64,0001.41
2022-09-20 09:48:00,,0827.1,4.99,0.00,30.3,28.8,00.0,39.0,32.0,11.8,0000.0,0003.00,0001.65,0001.40
2022-09-20 09:49:00,,0827.0,5.00,0.00,30.3,28.9,00.0,39.0,32.1,11.7,0000.0,0002.60,0001.67,0001.41
2022-09-20 09:50:00,,0827.0,4.99,0.00,30.3,28.9,00.0,39.1,32.1,11.8,0000.0,0002.65,0001.69,0001.42
2022-09-20 09:51:00,,0827.2,5.00,0.00,30.3,28.9,00.0,39.1,32.1,11.8,0000.0,0002.67,0001.70,0001.42
2022-09-20 09:52:00,,0827.1,5.02,0.00,30.3,28.9,00.0,39.1,32.1,12.0,0000.0,0002.66,0001.71,0001.43
2022-09-20 09:53:00,,0827.0,4.99,0.00,30.3,29.0,00.0,39.1,32.1,12.0,0000.0,0002.71,0001.71,0001.42
2022-09-20 09:54:00,,0827.0,5.00,0.00,30.3,29.0,00.0,39.1,32.1,11.8,0000.0,0002.50,0001.71,0001.43
2022-09-20 09:55:00,,0827.0,5.01,0.00,30.4,29.0,00.0,39.1,32.1,11.8,0000.0,0002.47,0001.72,0001.45
2022-09-20 09:56:00,,0827.2,4.99,0.00,30.4,29.0,00.0,39.1,32.1,11.8,0000.0,0002.47,0001.73,0001.46
2022-09-20 09:57:00,,0827.3,5.01,0.00,30.4,29.0,00.0,39.1,32.2,11.8,0000.0,0002.42,0001.74,0001.47
2022-09-20 09:58:00,,0827.2,4.99,0.00,30.4,29.0,00.0,39.1,32.2,11.8,0000.0,0002.32,0001.77,0001.48
2022-09-20 09:59:00,,0827.4,5.01,0.00,30.4,29.0,00.0,39.1,32.2,11.8,0000.0,0002.30,0001.79,0001.50
